星链-36991(STARLINK-36991)

导读

STARLINK-36991(NORAD编号68011)是SpaceX星链(Starlink)卫星互联网项目中的一颗低轨通信卫星,属于Starlink第二代卫星组网的组成部分,承担全球卫星宽带互联网服务的接入任务。 该卫星部署于近地轨道,作为Starlink低轨星座节点,依托约550公里轨道高度优势,可提供低时延网络服务,助力实现覆盖偏远地区的互联网接入。在SpaceX 2026年降轨计划中,该卫星将随四千余颗星链卫星调整轨道高度至480公里,提升太空运行安全性,降低碰撞产生太空垃圾的风险。

Basic Information
目录编号:
68011
目录名称:
STARLINK-36991
国际标识:
2026-039AB
轨道中心:
EARTH
卫星名称:
星链-36991
卫星全名:
星链-36991(STARLINK-36991)
卫星状态:
在轨 (已飞行189 天)
发射日期:
2026-02-27 UTC
国别 :
美国 (US)
星等 :
--
Orbit Information
数据来源 国际轨道数据
星历时间: 2026-09-03T09:37:03+0800
1天前
查看轨道信息
半长轴: 6861.128km
偏心率: 0.000138
轨道倾角: 43.002°
近地点辐角 274.957°
升交点赤经 126.982°
平近点角 85.112°
近地点: 482.044km
远地点: 483.938km
周期: 94.266分钟
每日圈数: 15.275995
Detailed Information
固有亮度:
5
最大亮度:
2.5
卫星平台:
Starlink V1.0
覆盖范围:
全球
运营商:
太空探索技术公司
运营商所在国:
美国
制造商(研发单位):
太空探索技术公司
制造商所在国:
美国
使用方式:
暂无
Satellite Introduction
Starlink 计划是 SpaceX 推出的全球卫星互联网项目,通过发射低轨道卫星,为全球尤其是偏远地区提供高速、低延迟的互联网服务。自 2019 年起,Starlink 已部署数千颗卫星,旨在缩小全球数字鸿沟,推动互联网普及。该项目还为军事、航空等行业提供通信支持,带来广泛经济效益。
2D Orbit Map
3D Orbit Map
Orbit Altitude Analysis Chart
Orbit Inclination Analysis Chart
Orbit Comprehensive Analysis Chart
View Comprehensive Chart
Conjunction Data List
Event ID Objects TCA Miss Dist (km) Collision Risk Probability Collision Risk Index (CRI) Action
CDM_260905-073105-817506-801121
2026-09-05T
07:31:49+0000
0.662 km
远距离
6.51432E-5 中风险 0.71
CDM_260905-111505-721906-801121
2026-09-05T
11:15:44+0000
0.511 km
远距离
4.921721E-5 中风险 0.69
CDM_260906-135305-559306-801121
2026-09-06T
13:53:23+0000
0.696 km
远距离
3.577435E-5 中风险 0.66
CDM_260905-090505-817506-801121
2026-09-05T
09:05:59+0000
1.046 km
极远距离
1.462108E-5 中风险 0.58
CDM_260905-111105-500306-801122
2026-09-05T
11:11:26+0000
2.762 km
极远距离
1.399016E-6 低风险 0.38
CDM_260905-055705-817506-801121
2026-09-05T
05:57:40+0000
2.310 km
极远距离
1.379059E-6 低风险 0.38